[[{"header":{"parameterUnit":"m.s-1","parameterCategory":1,"la1":30.2991,"la2":30.254,"lo1":-89.0895,"lo2":-89.0444,"dy":0.0017,"dx":0.0017,"nx":28,"ny":28,"refTime":"2024-02-14T09:00:00:Z","depth":0,"parameterNumber":2,"parameterNumberName":"U-component_of_WINDS"},"data":[0,0,0,0,0,0,0,0,0,0,0,0,0,0,0,0,0,0,0,0,0,0,0,0,0,0,0,0,0,0,0,0,0,0,0,0,0,0,0,0,0,0,0,0,0,0,0,0,0,0,0,0,0,0,0,0,0,0,-0.6936,-0.6937,0,-0.6947,-0.6947,-0.6948,-0.6914,-0.6913,-0.6912,-0.6911,-0.6926,-0.6927,-0.6928,0,0,0,0,0,0,0,0,0,0,0,0,0,-0.6891,-0.6892,-0.6936,-0.6937,-0.6937,-0.6947,-0.6947,-0.6948,-0.6914,-0.6913,-0.6911,-0.691,-0.6925,-0.6927,-0.6928,0,0,0,0,0,0,0,0,0,0,0,0,0,-0.6907,-0.6892,-0.6936,-0.6921,-0.692,-0.6947,-0.6947,-0.6948,-0.6914,-0.6913,-0.6911,-0.691,-0.6925,-0.6927,-0.6929,-0.6973,0,0,-0.6935,-0.6936,0,0,0,0,0,0,0,0,-0.6906,-0.6909,-0.6923,-0.6922,-0.6921,-0.6927,-0.6937,-0.6956,-0.6915,-0.6917,-0.6911,-0.6909,-0.6928,-0.6929,-0.6935,-0.6973,-0.6974,-0.6935,-0.6936,-0.6937,-0.6938,0,0,0,0,0,0,0,-0.6905,-0.6908,-0.6941,-0.6924,-0.6922,-0.6915,-0.6916,-0.694,-0.6931,-0.6916,-0.6914,-0.6915,-0.6927,-0.6933,-0.6935,-0.6974,-0.6935,-0.6937,-0.6938,-0.6939,-0.705,-0.7052,0,0,0,0,0,0,-0.6906,-0.6908,-0.694,-0.6941,-0.6909,-0.6917,-0.6918,-0.6927,-0.693,-0.6929,-0.6917,-0.6914,-0.693,-0.6933,-0.6936,-0.6988,-0.6937,-0.6939,-0.694,-0.7048,-0.705,-0.7052,0,0,0,0,0,0,-0.6905,-0.6909,-0.694,-0.6924,-0.6927,-0.692,-0.693,-0.6928,-0.6934,-0.6931,-0.6929,-0.6924,-0.6929,-0.6933,-0.6964,-0.6988,-0.694,-0.6942,-0.7046,-0.7049,-0.7051,-0.7092,0,0,0,0,0,0,-0.6904,-0.6909,-0.6924,-0.6924,-0.6928,-0.6967,-0.6932,-0.6929,-0.6937,-0.6934,-0.6938,-0.6937,-0.6928,-0.6961,-0.6966,-0.699,-0.6944,-0.7044,-0.7048,-0.7051,-0.7089,-0.7096,-0.7102,0,0,0,0,0,-0.6902,-0.6936,-0.6925,-0.6929,-0.6947,-0.6968,-0.697,-0.6959,-0.6939,-0.6956,-0.6954,-0.6937,-0.6984,-0.6964,-0.6969,-0.6995,-0.7043,-0.7047,-0.705,-0.7086,-0.7094,-0.7102,0,0,0,0,0,0,-0.694,-0.6936,-0.6924,-0.6958,-0.6964,-0.6962,-0.6982,-0.6968,-0.698,-0.6976,-0.6963,-0.6964,-0.6998,-0.6999,-0.6977,-0.7038,-0.701,-0.7016,-0.7035,-0.7044,-0.705,-0.7049,-0.6945,0,0,0,0,0,-0.6952,-0.6968,-0.6964,-0.6995,-0.6998,-0.699,-0.6999,-0.6989,-0.6995,-0.6997,-0.6997,-0.7005,-0.7021,-0.7033,-0.7048,-0.7089,-0.709,-0.7109,-0.7115,-0.7121,-0.7126,-0.7149,-0.7157,-0.7065,-0.7065,-0.7065,0,0,-0.6978,-0.6978,-0.6989,-0.7003,-0.7006,-0.7024,-0.6992,-0.7013,-0.7027,-0.7001,-0.703,-0.703,-0.7038,-0.7074,-0.709,-0.7076,-0.7151,-0.7126,-0.713,-0.7132,-0.7154,-0.7162,-0.717,-0.7068,-0.7067,-0.7067,0,0,-0.7034,-0.7035,-0.7061,-0.7065,-0.707,-0.7064,-0.707,-0.7071,-0.707,-0.7099,-0.708,-0.7097,-0.7126,-0.7132,-0.7139,-0.7199,-0.7184,-0.7204,-0.7239,-0.7262,-0.7269,-0.7275,-0.7298,-0.7306,-0.7209,-0.7209,-0.7209,0,-0.7066,-0.7091,-0.7077,-0.7099,-0.7106,-0.7082,-0.711,-0.7115,-0.7125,-0.7131,-0.7115,-0.7151,-0.7154,-0.7192,-0.7207,-0.7213,-0.7221,-0.7204,-0.7269,-0.7275,-0.7281,-0.7302,-0.731,-0.7211,-0.7211,-0.7211,-0.7211,0,-0.7131,-0.7149,-0.717,-0.7179,-0.7189,-0.7213,-0.7204,-0.7216,-0.7206,-0.7202,-0.7233,-0.7236,-0.7251,-0.7259,-0.725,-0.7297,-0.7288,-0.7271,-0.7243,-0.7292,-0.7312,-0.732,-0.7215,-0.7214,-0.7213,-0.7213,0,0,-0.7211,-0.7212,-0.722,-0.7224,-0.7228,-0.7243,-0.7267,-0.7281,-0.7292,-0.73,-0.7321,-0.7346,-0.733,-0.7338,-0.7329,-0.7349,-0.7397,-0.733,-0.733,-0.7343,-0.745,-0.7463,-0.7473,-0.7388,-0.7389,-0.739,-0.745,0,-0.7267,-0.7307,-0.7295,-0.7336,-0.7353,-0.7331,-0.7353,-0.7358,-0.7356,-0.7372,-0.737,-0.7388,-0.7365,-0.737,-0.7388,-0.7387,-0.7419,-0.7383,-0.7408,-0.7409,-0.7407,-0.7483,-0.7497,-0.7553,-0.7457,-0.7458,-0.7459,0,-0.7338,-0.7347,-0.739,-0.7391,-0.7398,-0.7417,-0.743,-0.7444,-0.7451,-0.7448,-0.7457,-0.7445,-0.747,-0.7442,-0.7478,-0.7454,-0.7463,-0.7465,-0.7467,-0.7469,-0.7438,-0.7488,-0.757,-0.7579,-0.7471,-0.747,-0.7469,0,-0.7393,-0.7417,-0.7445,-0.745,-0.7452,-0.7466,-0.7468,-0.7473,-0.7482,-0.7494,-0.75,-0.7515,-0.7523,-0.7536,-0.7528,-0.7508,-0.7566,-0.7537,-0.7565,-0.7566,-0.7579,-0.7578,-0.7665,-0.7584,-0.7584,-0.7584,-0.7584,0,-0.7457,-0.7484,-0.747,-0.7488,-0.7518,-0.7505,-0.7535,-0.7535,-0.754,-0.7558,-0.754,-0.7558,-0.7547,-0.7565,-0.7559,-0.759,-0.7594,-0.7594,-0.7592,-0.7595,-0.7596,-0.7602,-0.7598,-0.7586,-0.7586,-0.7585,-0.7585,0,-0.7524,-0.7516,-0.7546,-0.7545,-0.7546,-0.7568,-0.7569,-0.7586,-0.7582,-0.7606,-0.7611,-0.7606,-0.7625,-0.7619,-0.7641,-0.7637,-0.7677,-0.767,-0.7674,-0.7673,-0.7702,-0.77,-0.7796,-0.7809,-0.772,-0.772,-0.7721,0,-0.7566,-0.7586,-0.7588,-0.7598,-0.7601,-0.7618,-0.7627,-0.7615,-0.7626,-0.7636,-0.7652,-0.767,-0.7684,-0.7717,-0.7716,-0.7733,-0.7727,-0.7759,-0.7729,-0.7733,-0.7728,-0.7728,-0.773,-0.7766,-0.7767,-0.7768,-0.7768,0,-0.7641,-0.7636,-0.765,-0.7662,-0.7674,-0.7683,-0.7691,-0.7701,-0.769,-0.7704,-0.7723,-0.7733,-0.7755,-0.7774,-0.7789,-0.7793,-0.778,-0.7778,-0.7785,-0.779,-0.7792,-0.7792,-0.7692,-0.7776,-0.7775,-0.7774,-0.7774,-0.7774,-0.7698,-0.7715,-0.7719,-0.7735,-0.7739,-0.7747,-0.7764,-0.7762,-0.7777,-0.7793,-0.7785,-0.7808,-0.7816,-0.7834,-0.784,-0.7859,-0.7847,-0.7858,-0.7861,-0.7864,-0.7868,-0.7788,-0.7862,-0.7861,-0.7861,-0.7861,-0.7861,0,-0.7773,-0.7774,-0.7789,-0.78,-0.7813,-0.7798,-0.7806,-0.7819,-0.7839,-0.7846,-0.7859,-0.7882,-0.7901,-0.7901,-0.7919,-0.7934,-0.7928,-0.7939,-0.7938,-0.7939,-0.7877,-0.7869,-0.7943,-0.7943,-0.7943,-0.7943,-0.7943,-0.7943,-0.7814,-0.7842,-0.7837,-0.7869,-0.787,-0.7891,-0.7898,-0.7906,-0.7911,-0.7937,-0.7952,-0.7951,-0.7957,-0.7974,-0.7991,-0.7991,-0.7998,-0.8012,-0.801,-0.7952,-0.7944,-0.7936,-0.7928,-0.8013,-0.8013,-0.807,-0.8071,-0.8071]},{"header":{"parameterUnit":"m.s-1","parameterCategory":1,"la1":30.2991,"la2":30.254,"lo1":-89.0895,"lo2":-89.0444,"dy":0.0017,"dx":0.0017,"nx":28,"ny":28,"refTime":"2024-02-14T09:00:00:Z","depth":0,"parameterNumber":3,"parameterNumberName":"V-component_of_WINDS"},"data":[0,0,0,0,0,0,0,0,0,0,0,0,0,0,0,0,0,0,0,0,0,0,0,0,0,0,0,0,0,0,0,0,0,0,0,0,0,0,0,0,0,0,0,0,0,0,0,0,0,0,0,0,0,0,0,0,0,0,2.0383,2.0384,0,2.0514,2.0515,2.0516,2.0541,2.054,2.0539,2.0538,2.0667,2.0671,2.0675,0,0,0,0,0,0,0,0,0,0,0,0,0,2.0148,2.0152,2.0383,2.0384,2.0386,2.0513,2.0515,2.0517,2.0541,2.054,2.0539,2.0538,2.0665,2.067,2.0676,0,0,0,0,0,0,0,0,0,0,0,0,0,2.0261,2.0153,2.0382,2.0414,2.0418,2.0513,2.0515,2.0517,2.0542,2.054,2.0539,2.0537,2.0663,2.067,2.0676,2.0748,0,0,2.0696,2.0699,0,0,0,0,0,0,0,0,2.0255,2.027,2.0408,2.0412,2.0417,2.051,2.0479,2.0594,2.0542,2.0495,2.0538,2.0536,2.0615,2.0626,2.0653,2.0754,2.0759,2.0697,2.0701,2.0704,2.0706,0,0,0,0,0,0,0,2.0247,2.0264,2.0434,2.0409,2.0415,2.0419,2.0433,2.0501,2.0562,2.0499,2.0501,2.0516,2.0617,2.0647,2.0657,2.0761,2.0697,2.0703,2.0707,2.0709,2.0923,2.0925,0,0,0,0,0,0,2.0234,2.0257,2.043,2.0438,2.033,2.0425,2.0441,2.0481,2.0561,2.0572,2.0517,2.0517,2.0637,2.0649,2.0661,2.0748,2.0704,2.071,2.0714,2.0922,2.0924,2.0926,0,0,0,0,0,0,2.0229,2.0249,2.0425,2.0349,2.0371,2.043,2.0476,2.0485,2.0514,2.0575,2.0586,2.0537,2.0636,2.0652,2.0726,2.0753,2.0713,2.0719,2.0919,2.0922,2.0925,2.0924,0,0,0,0,0,0,2.0222,2.0247,2.0277,2.0349,2.0375,2.0489,2.0477,2.0488,2.0526,2.0527,2.0597,2.0607,2.0636,2.0716,2.0732,2.0762,2.0724,2.0917,2.0921,2.0924,2.0922,2.0926,2.093,0,0,0,0,0,2.0214,2.0271,2.0278,2.0299,2.0414,2.0491,2.0506,2.054,2.0529,2.0557,2.0596,2.0604,2.0748,2.0723,2.0742,2.0774,2.0916,2.092,2.0924,2.092,2.0926,2.093,0,0,0,0,0,0,2.0199,2.0281,2.029,2.0373,2.0425,2.0495,2.0533,2.0545,2.06,2.0598,2.0636,2.0652,2.0723,2.0756,2.0727,2.0845,2.0831,2.0838,2.0821,2.0827,2.0831,2.0821,2.0729,0,0,0,0,0,2.0206,2.0264,2.0332,2.0398,2.0424,2.0474,2.0509,2.053,2.0585,2.0607,2.0651,2.0702,2.0758,2.0795,2.085,2.0927,2.0941,2.0957,2.0961,2.0965,2.0971,2.1011,2.1019,2.0938,2.0938,2.0938,0,0,2.022,2.0272,2.0306,2.0396,2.0439,2.0496,2.0492,2.0553,2.0595,2.0615,2.0688,2.0722,2.0781,2.0856,2.0891,2.0885,2.0996,2.097,2.0972,2.0976,2.1016,2.1023,2.103,2.0941,2.0941,2.094,0,0,2.0274,2.032,2.038,2.0423,2.0488,2.0521,2.0535,2.0603,2.0627,2.07,2.0716,2.0765,2.0862,2.0903,2.0937,2.1004,2.1012,2.102,2.1042,2.1081,2.1087,2.1093,2.1115,2.1123,2.1026,2.1026,2.1026,0,2.0283,2.0372,2.0408,2.0469,2.0506,2.0529,2.0588,2.0627,2.0706,2.0731,2.0723,2.0844,2.0886,2.0969,2.0986,2.1013,2.1028,2.1013,2.1084,2.109,2.1096,2.1117,2.1125,2.1027,2.1027,2.1027,2.1027,0,2.0378,2.0439,2.0478,2.0556,2.0598,2.0657,2.07,2.0738,2.0755,2.0788,2.0861,2.0911,2.0976,2.0998,2.1015,2.1083,2.1077,2.1076,2.1062,2.1103,2.1124,2.1132,2.1028,2.1027,2.1027,2.1027,0,0,2.0428,2.0524,2.0538,2.0572,2.0645,2.0691,2.0749,2.0814,2.0845,2.0898,2.0947,2.1027,2.1026,2.1064,2.1086,2.112,2.1167,2.1115,2.1116,2.1121,2.1243,2.1242,2.1251,2.1174,2.1175,2.1177,2.1237,0,2.049,2.0598,2.0632,2.072,2.0775,2.0796,2.0847,2.0895,2.0926,2.0975,2.1009,2.1065,2.106,2.1083,2.1118,2.1154,2.1192,2.115,2.1217,2.1219,2.1201,2.1263,2.1263,2.1318,2.1246,2.1247,2.1248,0,2.0578,2.0633,2.0728,2.0791,2.0816,2.0861,2.0922,2.0969,2.1023,2.1043,2.1085,2.1103,2.1162,2.1145,2.1225,2.1196,2.1224,2.1246,2.1249,2.1256,2.1235,2.127,2.1336,2.1344,2.1262,2.126,2.1259,0,2.0603,2.0701,2.077,2.0799,2.0875,2.0906,2.0938,2.0991,2.1027,2.108,2.1103,2.1161,2.1192,2.1235,2.1267,2.1252,2.1344,2.133,2.136,2.1359,2.1378,2.1376,2.1449,2.1398,2.1398,2.1398,2.1398,0,2.0669,2.0725,2.0782,2.0824,2.0887,2.0924,2.0984,2.1018,2.1064,2.1111,2.1132,2.1175,2.1216,2.1264,2.1289,2.135,2.1364,2.138,2.1386,2.1378,2.1376,2.1397,2.1394,2.14,2.14,2.1399,2.1399,0,2.0707,2.0748,2.0824,2.089,2.0908,2.0951,2.1006,2.1046,2.1077,2.1136,2.1152,2.1201,2.1258,2.1294,2.1367,2.1384,2.145,2.1455,2.1432,2.1435,2.1463,2.1459,2.155,2.1563,2.1505,2.1505,2.1506,0,2.0746,2.079,2.0861,2.0894,2.0928,2.0982,2.1018,2.1055,2.1092,2.1156,2.1187,2.1246,2.1295,2.1385,2.1425,2.148,2.1486,2.1514,2.1494,2.1483,2.1484,2.1481,2.1484,2.1517,2.1517,2.1518,2.1518,0,2.081,2.0828,2.0881,2.0941,2.0984,2.1033,2.1081,2.1107,2.1151,2.1191,2.125,2.1288,2.1362,2.1419,2.1477,2.1508,2.1519,2.1524,2.1533,2.1525,2.1509,2.1517,2.144,2.1521,2.1521,2.1521,2.1521,2.1521,2.085,2.0889,2.0944,2.1002,2.1042,2.1086,2.1127,2.1163,2.1213,2.1277,2.1295,2.1356,2.1406,2.1486,2.1517,2.1564,2.156,2.1575,2.1578,2.1581,2.158,2.1503,2.1575,2.1575,2.1575,2.1575,2.1575,0,2.0913,2.095,2.1002,2.1069,2.1114,2.1122,2.1175,2.1211,2.1266,2.1312,2.136,2.1426,2.1481,2.1525,2.1581,2.1609,2.1616,2.1622,2.162,2.1627,2.1581,2.1567,2.1616,2.1616,2.1616,2.1616,2.1616,2.1616,2.0952,2.1018,2.1042,2.1127,2.1162,2.1223,2.1252,2.1292,2.1329,2.1403,2.1449,2.1478,2.1522,2.1581,2.1631,2.1642,2.1661,2.1666,2.1678,2.1635,2.163,2.1626,2.1612,2.167,2.167,2.172,2.172,2.1721]}]]